GFSSW_250_rhum_018.txt.gz
RH
29 30 30 42 38 30 25 22 23 21 24 20 20 35 40 39 27 24 17 15 20 18 23 32 34 30 25 20 19 21 28 28 37 26 23 27 36 42 40 36 39 41 43 54 98
38 39 40 41 38 32 29 25 24 20 23 23 34 48 53 41 39 31 29 24 18 23 26 34 30 30 23 25 32 37 32 50 58 66 65 56 50 63 75 59 49 55 63 56 99
36 37 37 54 44 40 37 24 27 23 23 30 45 48 45 38 38 41 30 35 22 27 31 40 54 48 41 53 67 63 70 71 90 97 91 94 88 77 78 94 88 77 82 96 99
45 50 35 58 46 47 36 27 27 24 25 37 38 31 26 28 30 29 34 42 44 48 44 51 71 70 63 84 87 88 97 100 100 100 100 98 92 81 78 79 90 80 85 98 99
45 60 50 63 53 47 40 29 28 24 33 34 25 20 17 16 16 22 30 40 44 52 57 66 74 74 72 94 100 100 100 97 100 99 100 97 94 94 100 95 89 98 97 90 93
54 60 68 48 57 48 41 31 29 27 34 20 15 14 13 13 14 15 20 29 41 49 49 59 66 63 92 100 99 100 99 99 100 100 100 100 99 100 98 100 99 96 98 100 100
60 67 88 64 62 54 38 28 29 30 24 13 12 13 14 16 15 14 16 27 46 61 77 60 69 100 100 100 100 100 100 100 100 100 100 100 100 94 100 100 100 94 89 99 100
73 68 72 54 51 46 34 29 29 32 14 13 14 15 16 14 13 14 15 24 49 54 53 61 95 100 100 100 100 100 100 99 99 100 100 100 100 100 100 98 95 94 91 88 97
67 97 87 70 58 49 32 29 33 23 13 16 16 16 15 15 15 14 15 18 31 38 54 90 100 100 100 100 100 100 100 99 100 100 100 100 99 100 99 100 100 100 100 100 99
79 89 83 86 68 51 32 29 32 14 14 16 18 17 19 17 18 18 19 21 32 54 92 100 100 100 100 100 100 100 100 100 100 100 100 100 100 98 100 100 100 99 100 99 98
92 92 96 83 67 44 39 30 26 14 14 16 18 18 20 22 25 25 38 49 67 86 100 100 100 100 100 100 100 100 100 100 99 99 97 100 100 100 97 95 94 92 87 82 77
91 100 100 100 72 45 40 28 19 13 13 17 19 18 20 25 35 37 72 76 94 99 100 100 100 100 96 100 100 100 100 100 100 100 99 99 99 96 92 89 80 65 61 59 56
87 100 100 77 76 46 36 30 14 13 15 18 20 22 29 43 38 53 64 73 78 95 100 100 100 100 100 100 100 100 99 100 98 67 54 49 45 31 22 20 24 22 20 28 43
98 98 96 71 80 53 34 26 13 14 17 17 16 18 25 52 55 60 62 68 74 80 82 81 91 89 90 100 96 93 82 58 26 13 16 21 20 19 23 22 36 49 60 55 37
100 100 97 68 81 46 35 19 14 14 17 15 15 16 16 28 47 51 56 60 63 74 74 68 38 28 30 37 40 33 20 14 18 22 24 23 35 39 64 72 47 28 22 20 19
100 100 100 77 80 47 33 17 15 16 16 15 15 14 16 17 17 20 24 24 24 22 21 22 20 19 16 12 12 15 18 26 33 38 46 48 54 54 33 20 20 22 27 41 40
98 100 100 99 57 43 32 16 18 17 16 15 15 15 15 15 15 14 13 11 10 10 10 10 11 10 12 16 19 37 72 81 73 63 54 29 21 19 20 26 41 46 48 52 57
100 100 100 69 52 40 28 21 21 20 19 19 21 17 17 18 21 23 19 16 14 12 14 21 27 32 40 53 68 76 68 50 33 26 22 23 36 46 48 49 54 58 64 66 60
100 100 100 53 52 39 23 26 36 32 38 43 44 38 37 40 40 47 48 51 49 46 52 50 53 59 66 63 53 34 23 23 22 26 44 47 45 47 51 59 69 71 65 50 45
92 84 64 65 46 42 29 49 63 55 70 68 57 56 60 62 61 60 51 45 48 41 41 44 45 33 29 23 20 22 25 36 47 50 44 50 59 62 66 68 66 55 52 49 47
36 38 78 64 41 50 56 78 80 79 81 63 60 67 54 43 38 30 27 22 21 21 21 22 22 23 23 23 25 49 57 50 50 54 61 67 71 69 62 58 56 54 51 49 47
30 36 85 58 52 69 58 88 84 87 72 58 61 52 30 24 23 26 28 34 39 40 36 34 33 27 33 56 60 51 46 54 64 68 68 69 71 68 64 64 59 56 56 52 49
32 70 84 52 73 74 81 92 92 79 62 56 47 28 25 30 41 46 49 49 40 35 29 28 34 54 60 50 46 50 62 66 68 71 74 72 70 63 62 63 64 66 63 60 64
32 87 69 53 91 72 91 94 100 71 60 51 34 25 30 44 50 51 51 45 34 27 33 53 67 57 53 63 67 71 72 74 73 71 70 64 67 53 65 64 66 77 82 83 71
44 85 69 85 100 82 98 95 99 77 60 45 30 28 33 38 48 61 62 44 40 66 79 67 57 60 71 76 80 83 84 81 76 72 74 67 77 48 69 69 77 85 72 70 77
69 72 93 100 100 93 96 93 100 80 63 41 27 32 31 38 54 70 60 56 76 83 72 64 71 80 84 82 84 94 97 79 80 73 75 68 86 63 66 74 83 78 69 92 76
70 83 100 100 96 71 100 100 100 80 62 47 28 37 36 43 60 71 68 82 86 89 90 78 74 78 82 82 95 100 75 81 72 64 65 70 74 74 83 84 78 76 100 100 67

GFSSW_250_rhum_021.txt.gz
RH
46 51 48 41 38 35 35 39 36 32 24 30 28 28 28 43 44 49 42 47 34 20 23 21 18 28 28 30 32 25 25 30 24 22 100 18 12 12 12 16 14 10 11 15 14
52 49 53 40 43 36 34 44 45 50 29 31 28 29 31 39 40 44 40 39 40 30 26 25 21 24 41 60 54 47 41 35 28 29 79 46 22 22 24 24 32 31 23 37 51
63 56 48 44 42 40 32 39 38 69 37 30 28 30 31 29 26 28 32 36 41 42 34 31 29 27 42 60 64 43 37 38 51 58 57 50 54 50 58 67 81 76 70 54 62
63 61 53 53 47 42 40 50 56 48 37 32 27 27 24 18 18 19 25 36 37 38 44 37 37 61 70 62 53 63 88 100 78 88 100 100 97 88 90 98 100 100 76 71 71
69 62 59 62 53 40 39 55 64 46 42 32 26 24 14 12 13 14 19 27 33 38 53 47 52 55 77 71 91 100 100 100 100 100 100 100 100 94 98 87 100 100 86 88 71
63 70 63 63 59 46 42 58 64 52 51 28 26 18 13 13 12 13 14 22 42 49 60 63 64 63 94 99 100 99 100 100 100 100 96 97 97 100 98 88 85 76 98 96 94
68 68 68 62 58 52 40 55 56 54 40 31 25 16 16 16 16 14 14 16 28 41 73 91 97 100 100 89 100 100 100 100 100 100 100 100 100 100 100 100 100 100 99 94 92
64 52 76 73 58 50 52 70 47 43 39 31 23 16 17 18 14 12 14 16 24 45 69 74 97 99 92 100 100 100 100 99 98 100 100 100 96 100 100 86 93 95 95 96 84
66 59 81 72 50 48 59 71 73 36 31 30 20 15 19 17 14 14 15 16 38 56 69 81 81 91 99 100 100 100 100 94 100 100 100 99 89 91 100 100 96 100 98 94 98
68 68 67 74 53 46 74 87 68 44 27 30 17 16 19 18 17 15 16 21 57 71 72 74 82 99 100 100 100 100 100 100 97 99 96 100 100 94 92 97 100 100 96 100 100
58 72 68 68 48 56 87 65 68 52 32 30 15 19 18 19 20 19 17 22 57 48 50 76 100 100 100 100 100 100 96 99 100 100 100 100 100 95 96 94 90 91 100 100 100
74 75 75 65 49 67 78 78 65 67 59 32 16 20 20 19 24 29 24 24 31 43 82 100 100 100 100 100 100 97 100 100 100 100 100 97 85 84 95 100 100 100 100 98 99
91 82 75 50 51 63 84 96 77 70 48 31 18 21 21 25 31 46 54 51 61 87 100 100 100 100 100 100 99 100 100 100 100 100 100 98 97 98 94 88 83 82 75 50 35
84 85 58 53 67 58 78 89 96 67 47 30 17 20 18 26 42 46 69 85 94 97 95 97 100 100 100 100 100 100 100 100 100 94 94 81 66 61 50 40 25 20 24 28 31
78 70 56 57 89 82 86 82 98 70 51 28 16 16 15 21 50 52 54 84 100 100 98 100 100 100 100 97 99 100 96 98 89 82 88 26 14 20 20 27 60 54 71 75 64
89 48 62 68 80 91 99 100 94 77 50 28 17 16 14 15 37 56 60 66 76 88 100 98 99 96 95 89 88 90 81 70 52 26 14 16 24 32 45 74 55 45 31 23 30
54 54 59 67 66 84 100 100 100 100 42 27 18 16 13 14 18 29 44 54 66 74 78 77 81 55 35 26 30 35 36 25 18 17 24 54 69 57 32 28 25 22 30 42 40
54 53 45 58 88 100 100 82 98 81 43 21 20 18 14 14 16 17 19 22 25 28 29 25 24 22 22 21 20 23 25 29 46 63 66 50 37 24 28 36 44 41 36 39 45
69 51 73 64 88 94 94 90 79 68 42 20 22 18 16 14 15 14 13 12 11 11 12 11 13 14 22 28 45 54 69 70 68 49 29 28 47 51 46 42 41 45 48 50 47
80 87 69 76 100 96 80 100 90 56 34 24 28 31 26 23 25 25 25 26 30 30 26 20 26 45 72 88 83 69 59 46 30 28 44 61 53 46 46 49 55 55 58 54 53
87 88 72 91 100 90 86 100 100 46 32 41 51 56 54 54 60 61 57 53 57 58 57 63 66 61 57 60 57 40 31 31 54 66 58 47 46 51 63 67 67 65 60 58 56
71 100 97 100 100 100 100 100 95 46 46 70 73 65 64 59 52 53 44 34 35 31 26 34 37 31 35 30 30 30 39 68 70 62 58 60 70 71 72 72 74 73 72 72 73
81 99 100 100 100 100 100 100 64 44 68 80 76 58 57 41 29 29 30 24 22 26 31 30 27 27 34 32 37 62 68 66 61 64 69 69 70 73 75 74 69 63 63 63 65
97 100 100 100 90 94 100 92 57 50 94 82 64 52 48 27 27 31 35 42 50 49 47 47 42 43 38 61 76 69 68 70 71 71 72 71 68 64 62 63 59 65 66 64 65
44 92 100 95 84 97 71 65 52 65 98 67 51 45 33 27 34 43 50 51 46 40 38 35 36 41 76 70 64 69 75 75 71 70 77 66 72 50 68 82 79 78 76 77 80
33 72 86 52 60 78 76 60 65 85 93 60 49 42 27 32 44 49 56 55 41 34 32 43 68 73 63 61 71 83 84 74 76 80 83 74 94 47 52 59 78 78 81 81 77
36 49 41 32 46 84 77 56 87 100 96 63 54 38 28 35 41 50 54 53 40 48 66 76 75 61 62 72 83 85 79 82 78 73 65 74 75 60 73 73 71 73 71 82 86

GFSSW_250_rhum_024.txt.gz
RH
58 47 41 31 44 53 56 54 50 52 36 38 39 34 29 27 22 22 25 32 42 38 35 27 22 34 23 28 47 27 23 18 23 19 20 46 100 77 64 47 21 30 92 49 52
60 45 42 39 55 51 44 44 56 56 46 35 58 44 26 19 15 15 18 22 26 35 33 24 22 47 44 48 48 45 45 35 30 39 65 80 100 100 86 61 29 46 32 64 49
66 49 37 39 64 57 44 52 47 53 45 40 64 48 25 14 12 11 13 16 20 28 35 37 30 40 70 60 43 55 56 36 46 67 98 100 100 98 50 39 56 98 100 99 67
84 63 49 49 59 59 45 49 52 53 41 42 66 50 31 14 14 15 13 13 18 29 38 43 36 40 73 71 75 66 59 71 75 88 100 100 100 81 76 36 30 80 99 71 59
84 62 45 57 71 74 44 37 53 45 41 41 59 53 45 15 15 17 17 14 15 31 43 51 51 50 88 83 100 85 97 84 98 92 100 100 100 100 80 83 86 99 100 99 90
82 69 54 52 74 80 45 50 56 44 36 37 59 58 47 14 18 17 16 18 14 29 42 56 48 87 100 99 100 97 94 100 100 100 77 81 94 100 96 99 86 85 100 100 91
62 65 65 56 68 71 41 51 56 42 35 38 62 60 39 14 18 16 14 16 15 34 50 53 57 91 96 100 99 100 100 100 100 100 100 100 100 100 86 76 85 100 100 100 100
68 58 63 61 75 51 42 53 56 49 34 38 60 57 34 16 18 18 17 16 15 31 48 73 92 100 100 100 84 100 100 100 100 100 100 100 100 100 81 94 90 81 99 100 98
66 51 55 50 56 49 44 69 62 56 38 37 47 45 23 18 18 20 17 17 16 24 44 81 98 100 100 91 97 100 100 100 100 100 100 99 100 97 100 100 100 90 76 80 84
48 47 48 56 50 48 52 66 58 56 36 42 48 51 17 21 20 22 18 16 17 39 55 81 98 100 100 100 100 100 100 100 100 96 100 100 100 100 90 80 95 99 97 100 100
26 34 48 56 63 44 49 71 65 67 36 44 52 70 18 23 21 24 21 17 26 52 71 89 99 100 100 100 100 100 100 100 100 99 99 100 100 100 100 100 83 100 100 97 95
29 33 44 57 51 37 49 65 78 54 43 54 42 64 23 24 24 28 30 21 41 60 83 90 100 99 100 100 100 100 100 100 96 96 82 88 81 100 100 100 95 86 86 96 87
29 34 50 59 48 38 53 75 69 39 44 52 50 42 26 26 25 34 38 34 38 47 50 74 85 97 100 100 100 100 100 92 91 100 100 100 100 86 83 78 74 80 98 92 89
36 51 57 56 55 47 56 75 66 44 46 63 55 56 27 25 24 33 43 51 44 33 52 78 89 100 100 100 100 100 100 86 78 100 93 99 90 91 69 77 74 83 83 86 68
43 40 49 54 53 56 68 76 60 35 46 70 56 55 29 24 22 32 50 55 76 80 78 82 100 100 99 100 87 82 81 72 95 96 100 93 65 74 80 50 70 47 23 36 23
32 41 44 65 60 63 70 71 44 43 43 57 57 68 34 21 21 26 51 56 64 90 97 93 100 90 99 96 88 89 84 82 98 99 100 84 70 78 19 40 98 92 91 71 61
40 43 52 66 67 71 64 58 55 68 55 50 65 48 34 22 19 21 37 59 60 70 90 96 94 89 88 95 92 88 87 100 98 94 79 77 59 28 39 99 100 100 87 71 24
44 47 59 68 83 67 63 65 66 63 78 60 64 60 45 24 21 15 22 35 52 66 73 88 98 89 95 94 99 66 61 66 82 52 46 44 57 52 68 75 66 100 72 28 43
44 54 79 90 100 74 70 66 74 72 72 72 66 66 33 27 20 18 18 22 40 52 63 78 85 87 85 75 40 30 33 39 36 45 79 77 77 42 36 31 34 49 45 51 45
59 71 100 100 99 76 63 69 86 84 69 67 67 64 30 33 26 22 20 17 18 27 46 41 85 31 34 26 29 18 49 34 51 81 73 40 31 36 52 52 50 47 44 41 37
95 72 100 100 100 74 66 77 78 98 75 67 85 97 40 46 42 44 39 25 16 16 14 12 16 13 18 16 26 39 75 91 67 50 30 32 47 54 52 49 44 40 40 40 45
100 100 99 99 94 100 84 100 62 93 86 79 88 96 53 64 59 67 61 58 62 60 62 61 71 63 56 93 91 90 76 58 35 31 57 62 64 55 48 42 43 46 53 63 68
100 98 100 97 91 100 100 88 82 98 98 95 93 100 58 78 62 62 59 60 57 56 64 64 68 74 86 69 60 48 35 30 42 75 66 59 48 48 48 57 66 70 69 64 60
94 96 86 83 85 69 75 66 64 80 81 88 99 90 74 80 57 50 38 42 43 34 32 28 29 42 39 30 33 34 33 60 75 62 58 52 52 62 60 69 68 68 60 53 56
53 66 66 74 62 74 100 98 91 99 100 98 98 61 94 78 50 36 32 29 24 25 28 32 29 27 26 28 34 37 70 74 67 48 66 54 62 57 62 72 77 80 63 80 65
42 42 44 60 100 79 77 100 100 100 83 95 79 57 100 68 41 32 30 34 45 47 49 42 40 35 39 40 43 72 74 65 53 58 70 69 74 66 70 77 64 61 49 60 74
36 36 44 58 86 97 100 100 100 100 98 100 65 57 93 59 36 30 35 50 58 50 47 36 26 29 34 41 72 67 56 56 69 72 73 83 94 82 60 54 78 50 59 66 71

GFSSW_250_rhum_027.txt.gz
RH
100 100 100 92 83 70 57 45 32 28 33 27 31 40 41 39 27 18 13 13 11 16 22 27 26 30 32 47 66 88 70 90 52 18 13 23 62 53 55 70 61 40 43 36 89
100 100 100 96 72 69 43 51 34 28 27 25 31 42 37 39 30 16 14 14 12 13 19 24 30 35 26 63 68 64 100 81 32 17 23 42 68 66 100 68 81 75 100 100 100
100 100 100 80 94 52 44 61 46 28 24 25 30 38 38 48 28 13 16 15 14 13 17 22 34 43 30 82 98 91 91 42 37 52 40 72 81 100 97 75 70 100 85 100 100
100 100 100 100 81 59 43 44 39 31 25 28 31 38 35 47 29 14 16 16 15 13 20 29 37 38 48 100 100 100 100 65 66 62 100 100 100 100 72 73 67 100 100 100 100
100 100 100 100 78 51 48 40 35 31 30 35 35 39 36 51 18 16 17 16 14 14 17 35 40 39 48 100 100 100 100 94 70 100 100 100 100 100 79 76 80 87 100 100 99
100 100 100 91 83 59 47 37 36 27 28 29 38 42 37 43 17 17 17 16 14 14 19 34 46 52 49 100 100 93 95 96 91 100 100 100 100 100 96 99 80 88 100 100 100
100 100 100 100 70 52 51 33 30 28 25 27 38 44 34 38 17 19 18 17 14 15 26 39 56 68 58 100 98 100 100 98 85 100 100 100 100 100 100 78 58 57 100 100 100
100 100 99 88 63 57 56 25 28 32 27 29 41 42 37 32 19 19 20 19 16 16 35 50 55 66 97 100 100 100 99 100 100 83 97 100 100 100 100 100 100 65 98 78 75
100 100 100 97 68 64 50 23 27 29 32 32 44 44 39 35 17 19 23 23 17 17 43 55 62 99 100 100 100 94 100 100 100 100 86 96 81 100 100 94 72 86 100 98 81
100 100 76 57 69 66 52 26 29 30 35 38 46 48 34 42 18 18 24 29 18 20 36 58 71 100 100 100 99 96 100 100 100 99 100 100 99 88 100 87 91 99 93 90 92
100 95 77 68 67 58 44 30 32 30 36 47 47 53 33 44 26 17 23 40 24 41 50 86 80 98 100 98 95 91 78 99 100 100 100 100 100 100 96 84 84 81 100 100 100
100 98 56 75 55 45 34 32 42 42 38 50 50 50 35 50 27 18 20 46 38 45 52 73 96 95 98 94 85 95 100 99 89 89 98 100 100 100 90 100 100 100 84 85 92
83 88 54 48 48 34 33 34 42 40 53 51 63 40 42 56 33 19 18 45 49 55 69 70 81 82 81 94 85 94 96 100 99 86 98 84 75 89 98 94 100 100 96 82 74
56 42 38 36 37 34 40 41 35 41 55 61 60 43 50 71 37 21 17 37 65 48 67 66 68 74 85 77 81 94 74 95 84 80 100 98 100 100 100 86 65 67 74 84 86
61 45 38 38 42 42 40 38 42 41 49 62 59 38 62 68 50 28 21 30 70 79 74 46 47 87 95 84 86 91 100 100 100 99 88 99 92 74 85 74 61 96 82 55 64
49 44 49 52 48 47 42 43 40 40 56 57 54 39 69 67 49 24 25 27 60 85 85 93 92 83 100 93 87 85 91 85 89 100 95 79 69 84 80 85 71 49 36 33 41
48 47 56 63 67 65 59 44 34 52 52 52 53 42 63 78 68 29 21 26 41 84 99 84 98 95 89 82 89 100 90 88 95 100 79 90 90 74 76 41 74 85 34 30 44
60 62 55 61 63 71 52 44 35 58 55 49 44 43 63 73 90 67 18 20 21 45 77 94 100 100 98 98 100 97 76 75 100 100 100 90 78 71 55 63 70 81 57 70 87
90 73 61 64 54 60 41 50 47 50 63 49 52 48 47 81 74 94 26 17 19 25 46 81 81 83 83 87 92 87 76 83 88 72 65 86 49 20 54 67 66 90 99 100 90
87 83 83 66 65 57 82 53 45 52 55 60 59 57 46 85 69 99 37 23 17 19 28 56 73 74 69 70 80 85 81 54 38 49 77 56 46 69 64 50 42 36 50 94 100
95 94 89 51 57 57 77 68 57 57 73 89 76 63 62 72 60 68 51 42 27 21 23 28 41 47 40 62 72 59 32 23 29 55 77 54 87 49 49 32 29 60 45 44 48
78 98 82 58 50 58 61 80 65 65 79 100 89 75 63 57 47 46 43 74 61 57 35 19 17 25 19 23 27 21 17 16 35 66 96 71 45 36 42 55 51 39 54 51 46
75 91 76 73 65 63 79 75 72 76 99 100 84 80 84 66 45 48 50 73 66 65 68 78 64 48 56 52 20 22 44 81 99 82 52 38 26 45 55 52 57 58 44 46 50
46 77 68 64 84 91 86 75 89 88 90 97 100 64 97 81 62 49 50 71 62 56 54 59 64 74 71 72 77 85 73 81 71 54 35 31 37 71 45 54 63 61 56 44 38
46 42 42 90 84 88 98 91 100 84 99 100 100 99 98 74 52 47 49 77 59 48 41 38 40 42 43 36 46 52 45 37 26 24 30 44 61 57 52 67 69 69 72 57 80
36 47 61 100 100 100 100 97 100 100 100 100 100 77 57 63 64 78 57 90 54 42 28 25 24 25 23 23 28 26 24 23 26 25 54 47 59 51 58 69 73 59 46 53 54
31 98 100 100 100 97 88 97 99 100 90 100 100 100 92 83 63 86 56 81 50 38 30 46 52 52 53 46 41 36 29 34 39 51 51 51 59 69 66 59 77 87 92 76 63

GFSSW_250_rhum_030.txt.gz
RH
100 100 100 100 95 100 100 66 61 63 37 36 23 22 26 28 27 34 24 16 14 15 14 12 14 24 29 36 32 60 60 98 58 24 18 15 14 16 14 15 18 32 17 28 23
85 100 100 100 89 100 100 89 75 55 38 29 20 20 25 29 29 35 22 16 15 15 13 13 16 24 36 46 70 100 100 45 45 25 30 37 28 25 39 47 36 21 53 93 92
96 100 100 100 78 100 100 100 85 47 48 33 18 23 29 28 30 34 20 16 16 15 12 12 16 25 37 51 100 100 100 69 45 43 68 59 78 100 99 86 47 52 100 100 100
86 100 100 100 100 100 100 100 59 56 45 32 18 25 29 31 36 33 19 16 18 15 12 13 24 25 35 46 100 100 86 91 78 93 58 91 100 100 76 56 61 72 100 100 100
100 100 100 100 100 100 100 90 79 70 43 36 19 23 28 34 35 32 19 17 18 14 13 14 25 34 44 50 90 100 100 88 88 95 96 100 100 100 68 55 81 100 100 100 100
100 100 100 100 100 100 100 94 90 74 50 45 28 23 30 41 38 31 19 16 19 13 14 18 32 42 59 81 100 100 93 100 100 100 100 100 100 100 88 83 100 100 100 100 100
100 100 100 100 100 100 98 100 87 68 42 48 32 24 28 43 40 36 19 15 22 15 14 30 38 48 63 100 100 100 94 86 100 100 100 100 100 100 100 81 87 100 100 100 100
100 100 100 100 100 100 100 93 91 59 42 47 32 24 30 41 43 40 20 15 27 17 19 38 50 53 54 100 100 100 100 100 100 100 100 100 100 100 100 79 88 100 100 100 100
96 100 100 100 100 100 100 100 88 57 42 50 30 28 35 45 46 39 22 14 27 26 27 44 60 62 69 100 100 100 95 94 100 100 100 100 100 100 100 99 76 85 89 100 100
100 99 79 94 92 96 100 100 86 48 50 38 26 30 36 51 47 40 27 16 27 33 43 46 71 65 80 98 100 90 100 100 100 100 100 100 100 100 100 100 84 70 67 91 100
100 100 100 100 100 100 100 100 82 37 52 32 30 31 38 57 45 50 30 16 26 40 49 59 65 76 74 85 99 91 86 84 78 90 100 100 100 100 100 100 100 100 91 79 80
100 100 100 100 100 100 100 93 61 39 41 30 36 34 36 59 46 65 36 18 24 52 48 68 70 82 92 89 89 94 90 100 100 94 71 99 100 99 93 90 100 92 82 80 90
100 100 100 100 100 100 100 78 61 28 33 35 34 36 39 56 48 62 46 19 18 58 56 79 79 73 94 100 94 97 100 100 100 100 100 94 92 100 99 84 75 83 91 94 82
100 100 100 100 100 100 93 83 48 31 33 36 37 37 39 54 56 54 77 44 16 43 71 63 73 79 88 98 96 100 100 100 100 100 95 90 88 77 77 97 100 100 100 100 98
90 100 100 100 100 100 91 67 42 34 34 39 41 34 36 53 57 55 78 50 18 25 59 75 59 63 82 79 92 90 100 86 82 100 95 87 96 85 82 79 88 97 92 82 67
38 94 100 100 100 100 70 78 58 39 44 51 47 42 32 47 54 48 90 67 20 20 43 64 75 92 74 78 80 81 74 86 95 100 80 76 86 99 97 96 98 98 100 97 92
44 45 39 74 100 99 86 63 58 51 51 54 49 44 39 45 49 48 86 85 28 21 23 52 81 98 100 92 84 76 88 90 87 100 75 77 69 65 70 67 75 79 54 48 39
48 35 43 47 90 100 70 51 42 72 52 54 50 48 42 46 51 45 64 67 56 29 20 35 69 86 79 100 90 88 100 100 86 78 73 75 64 70 84 86 76 62 26 19 43
55 47 49 53 55 100 49 42 47 86 54 54 43 40 41 46 46 53 53 51 43 42 28 21 38 56 85 84 85 92 89 76 74 79 72 85 81 100 93 69 39 27 19 31 51
87 66 60 60 57 67 69 51 63 95 66 55 43 44 50 44 46 52 62 58 71 42 32 18 21 32 56 91 80 71 86 99 100 100 82 56 50 66 64 27 52 66 58 59 50
63 78 75 63 51 56 73 68 99 99 64 58 53 37 44 42 46 57 81 65 80 44 34 19 16 19 26 36 69 76 66 72 78 96 54 28 25 22 31 28 70 52 47 46 56
86 91 66 50 52 55 56 78 100 98 78 76 54 44 42 45 52 63 75 71 81 40 42 42 28 22 15 19 49 72 53 38 66 42 37 14 14 26 26 50 54 50 64 58 54
80 89 78 40 39 64 70 88 100 93 80 66 52 48 38 50 82 73 77 68 72 53 48 57 50 38 42 38 23 35 24 16 24 21 35 29 31 68 54 46 35 64 70 74 62
66 79 70 41 59 74 92 99 100 100 77 64 65 44 56 60 82 74 61 61 62 58 59 64 63 56 59 59 64 70 68 66 66 79 72 74 65 66 40 38 56 51 49 48 52
33 40 49 48 64 99 100 100 100 80 73 78 64 74 78 67 80 66 65 68 62 64 44 67 56 50 46 50 51 65 69 69 75 70 63 51 58 34 29 57 70 67 48 48 44
20 30 56 70 100 100 100 100 100 85 99 100 80 97 89 90 60 73 96 48 53 68 51 71 55 43 32 28 26 25 26 22 34 28 38 31 28 25 63 88 76 59 66 73 79
17 28 53 72 85 70 73 100 100 100 100 74 95 86 91 93 82 100 100 96 62 74 54 75 61 40 28 24 28 44 31 39 33 29 29 33 35 66 70 58 58 69 77 75 58

GFSSW_250_rhum_033.txt.gz
RH
100 100 100 100 91 88 100 100 100 100 100 92 52 47 46 43 30 21 17 19 16 15 13 16 16 12 13 15 31 40 74 51 27 24 17 18 15 14 15 18 34 29 60 52 33
100 100 100 100 99 95 100 100 100 100 100 83 61 50 45 49 35 24 18 18 16 14 13 16 14 12 14 17 31 49 85 41 26 36 42 31 19 20 18 22 50 98 100 64 36
100 100 100 100 100 87 86 100 100 100 100 100 74 49 47 41 31 24 19 18 17 14 15 15 12 13 15 20 37 47 32 40 53 68 59 52 39 43 65 97 93 62 98 64 62
99 100 100 100 100 93 80 100 100 100 100 96 69 41 56 42 34 24 20 20 18 14 17 14 13 14 23 26 40 58 80 57 97 100 100 100 100 100 100 98 76 52 38 94 100
100 100 100 100 100 80 83 95 100 100 100 100 72 61 57 42 33 22 20 24 20 14 21 15 20 29 31 36 56 96 100 84 98 100 100 100 100 100 100 64 62 60 100 100 100
79 99 100 100 100 93 86 100 100 100 100 96 64 61 60 40 30 20 23 23 21 14 26 20 29 33 36 40 59 100 100 96 100 100 100 100 100 100 88 86 97 100 100 100 100
100 100 100 100 100 84 82 93 100 100 100 91 73 71 59 39 28 20 24 29 20 14 30 25 39 41 48 49 60 100 100 95 100 100 100 100 100 70 100 100 100 100 100 100 100
98 100 100 100 99 86 97 99 100 100 100 82 69 80 55 37 26 22 28 33 21 15 31 25 42 56 72 61 77 100 99 100 100 100 100 100 100 64 79 100 100 100 100 100 100
100 100 100 100 100 88 98 87 85 98 84 84 89 72 45 32 27 27 32 36 22 16 35 28 54 68 79 85 95 92 84 100 100 100 100 100 100 90 96 100 100 100 100 100 100
100 100 100 100 100 98 98 100 99 88 98 96 92 66 40 29 26 31 35 38 23 15 35 30 62 71 81 100 100 80 90 99 99 100 100 100 100 100 98 100 100 100 100 100 100
100 100 100 100 94 100 94 100 100 100 96 100 92 66 38 27 27 32 37 43 27 17 24 36 58 74 67 100 100 100 100 100 100 100 100 100 100 100 100 98 100 100 100 98 100
100 100 91 85 100 100 100 91 100 100 92 100 90 76 38 28 29 30 34 43 29 20 22 44 52 77 87 88 99 97 97 98 100 100 100 100 100 100 100 98 75 86 72 73 89
100 100 100 82 92 100 100 100 100 100 100 100 92 69 34 30 39 33 40 40 31 25 20 45 55 69 99 92 96 82 86 90 97 98 100 100 100 100 100 99 93 81 66 78 96
77 62 68 97 100 100 100 100 100 99 100 100 100 71 43 33 42 35 43 45 35 26 17 45 64 65 73 82 97 90 90 100 100 98 100 100 100 100 100 99 99 89 87 81 79
57 60 42 55 100 100 100 100 100 100 100 100 100 80 59 39 39 38 41 47 36 26 19 25 65 67 71 69 86 85 94 100 100 88 78 78 87 100 100 100 100 69 75 100 100
85 52 43 47 74 100 100 100 100 100 100 100 96 73 63 51 39 35 44 47 38 28 27 15 49 77 87 78 95 94 95 84 100 98 82 85 74 72 76 72 92 99 95 84 79
94 84 58 59 59 52 82 100 100 100 100 97 99 78 57 50 43 33 44 47 46 57 31 18 19 61 79 79 84 100 100 100 98 84 72 79 86 77 86 93 91 96 100 99 79
96 99 82 55 62 54 53 47 46 79 81 100 94 77 50 55 47 34 46 47 46 68 60 25 17 28 54 74 79 91 93 100 100 88 91 99 84 82 87 83 84 87 91 85 81
68 82 90 85 76 89 75 58 56 55 59 71 97 74 53 48 55 40 41 45 46 65 58 34 23 19 36 54 69 80 86 87 86 69 65 70 86 85 82 81 67 54 52 53 34
54 68 84 81 69 93 66 62 62 58 53 54 95 70 51 49 58 48 39 45 48 58 69 42 28 25 22 26 45 75 73 73 75 68 72 82 86 90 80 68 60 50 46 24 41
53 54 60 76 73 84 84 70 71 66 48 57 87 83 74 70 72 71 45 42 46 48 67 64 45 41 24 20 21 36 75 83 86 81 74 76 83 88 47 36 34 27 31 56 59
76 48 44 48 64 68 76 69 72 70 53 57 65 81 83 72 86 81 56 41 42 44 71 57 49 37 33 41 18 20 27 54 79 73 58 64 74 37 28 34 45 70 65 63 47
71 43 45 32 41 63 75 52 80 67 69 64 62 78 98 100 93 76 53 39 46 48 66 63 53 50 39 51 51 27 18 28 44 35 25 29 24 20 45 56 66 85 62 48 48
42 60 61 29 54 92 51 91 97 78 84 72 74 92 98 100 93 81 65 46 53 49 45 58 62 58 57 53 58 62 54 46 52 51 34 36 44 62 82 100 89 62 74 60 63
26 35 61 54 63 95 97 100 100 97 82 59 60 70 99 100 100 83 72 46 52 48 49 62 63 48 65 60 60 55 52 53 54 55 51 60 85 74 74 83 62 46 60 76 67
23 28 41 99 100 99 100 100 100 100 85 69 72 98 100 100 100 78 58 51 61 52 92 61 53 49 64 63 52 43 29 27 24 23 28 33 38 30 36 42 28 30 62 68 76
16 22 45 89 100 98 99 100 100 100 100 88 100 100 100 100 99 76 61 66 70 52 62 50 46 53 53 62 52 31 25 24 31 39 38 39 38 32 27 30 34 48 64 67 68